Regional Weather Roundup
Issued by NWS

Home | Current Version | Previous Version | Graphics & Text | Print | Product List | Glossary On
Versions: 1 2 3 4 5 6 7 8 9 10 11 12 13 14 15 16 17 18 19 20 21 22 23 24 25 26 27 28 29 30 31 32 33 34 35 36 37 38 39 40 41 42 43 44 45 46 47 48 49 50
797
ASUS43 KFSD 252110
RWRSD

WEATHER ROUNDUP FOR SOUTH DAKOTA
NATIONAL WEATHER SERVICE SIOUX FALLS SD
400 PM CDT MON SEP 25 2017

NOTE: "FAIR" INDICATES FEW OR NO CLOUDS BELOW 12,000 FEET WITH NO
SIGNIFICANT WEATHER AND/OR OBSTRUCTIONS TO VISIBILITY.


SDZ001>005-009-010-012>017-252200-
NORTHWEST AND NORTH CENTRAL SOUTH DAKOTA

CITY           SKY/WX    TMP DP  RH WIND       PRES   REMARKS
BUFFALO          N/A     50  40  68 NE5       30.04F
FAITH            N/A     50  42  74 VRB5      30.11R
MOBRIDGE       CLOUDY    53  45  74 N9        30.09R
$$

SDZ012>016-024>037-041>051-057-063-072>074-252200-
SOUTHWEST AND SOUTH CENTRAL SOUTH DAKOTA

CITY           SKY/WX    TMP DP  RH WIND       PRES   REMARKS
RAPID CTY ARPT CLOUDY    52  43  71 E8        30.09F
PIERRE         CLOUDY    53  44  71 N10       30.08S
CUSTER         CLOUDY    46  36  68 VRB3      30.09S
ELLSWORTH AFB  CLOUDY    52  45  76 E6        30.09S
PHILIP         CLOUDY    57  43  59 NE8       30.09S
PINE RIDGE     CLOUDY    52  43  71 N7        30.10S
SPEARFISH      CLOUDY    48  45  87 VRB6      30.09S
WINNER         CLOUDY    53  46  77 N8        30.08F
$$

SDZ004>011-016>023-039-040-252200-
NORTHEAST SOUTH DAKOTA

CITY           SKY/WX    TMP DP  RH WIND       PRES   REMARKS
ABERDEEN       CLOUDY    53  47  79 N10       30.10F
WATERTOWN      CLOUDY    51  48  89 N14       30.03F
BROOKINGS      LGT RAIN  53  49  86 N13       30.01F
SISSETON         N/A     53  48  83 N13       30.06F
$$

SDZ017-020-022-023-036>040-048>070-252200-
SOUTHEAST SOUTH DAKOTA

CITY           SKY/WX    TMP DP  RH WIND       PRES   REMARKS
SIOUX FALLS    LGT RAIN  56  54  93 N9        29.99F
HURON          CLOUDY    53  48  83 N14       30.05F
CHAMBERLAIN    CLOUDY    55  48  79 NE8       30.07F
MITCHELL       CLOUDY    53  50  89 N12       30.04S
YANKTON        LGT RAIN  54  52  93 NW9       30.02R
$$

ABBREVIATIONS USED IN REMARKS
   TC - TEMPERATURE IN CELSIUS
  WCI - WIND CHILL INDEX
   HX - HEAT INDEX
  VSB - VISIBILITY





USA.gov is the U.S. government's official web portal to all federal, state and local government web resources and services.